Wind_Speed
12 12 13 14 14 14 13 12 11 10 9 8 9 9 8 8 9 9 8 11 8 7 9 6 8 7 8 8 6 6 6 7 7 7 6 5 6 7 7 7 7 8 9
14 13 13 15 16 15 13 10 9 8 7 6 8 9 8 7 7 7 8 7 11 9 6 7 4 6 3 5 7 6 4 3 4 5 5 4 5 4 4 4 4 5 7
15 14 15 18 18 16 14 12 9 8 6 5 6 8 7 7 6 6 5 6 7 10 8 6 8 5 6 4 2 4 3 1 0 2 2 3 3 2 1 1 1 3 4
16 15 18 19 20 17 14 10 8 9 8 5 5 6 7 7 6 6 5 5 5 6 8 7 7 8 6 7 4 5 5 3 4 3 3 3 3 3 3 3 3 3 3
16 17 19 21 21 18 15 11 9 12 11 8 6 6 6 7 6 6 6 6 5 6 7 7 7 7 8 8 8 6 7 7 6 6 5 5 5 5 5 5 5 5 5
19 17 21 23 23 20 17 14 12 13 13 10 9 8 7 7 8 8 8 8 8 7 8 7 8 9 9 10 10 8 9 11 9 9 8 7 8 7 8 8 9 8 7
22 19 23 26 26 22 18 16 15 14 16 15 12 11 11 11 12 12 12 12 12 11 11 10 11 11 11 11 10 10 12 13 12 12 12 10 10 10 10 11 11 11 11
25 22 23 28 27 25 22 20 18 17 19 17 17 12 6 11 15 18 18 16 15 16 15 14 15 15 14 15 14 13 12 14 16 16 16 15 13 12 13 13 14 14 14
29 26 23 25 28 26 25 21 20 19 18 19 19 13 5 5 7 5 9 16 17 18 18 17 16 17 17 17 18 17 17 16 15 16 19 20 19 17 16 15 16 16 16
31 29 27 27 27 27 27 25 22 21 20 20 20 21 19 18 8 5 9 13 13 15 18 19 18 17 18 19 19 19 19 19 20 19 19 20 22 22 21 19 18 18 18
33 31 31 31 31 31 27 25 24 25 23 23 22 20 21 21 22 20 16 14 18 19 16 14 15 17 18 19 20 20 19 20 22 23 23 23 23 23 23 24 22 20 21
36 37 35 33 32 32 31 27 26 25 24 24 23 24 24 25 23 23 22 21 21 24 23 22 21 20 19 21 21 22 22 23 22 23 26 26 26 27 27 26 25 24 23
39 40 40 38 36 35 31 27 26 28 27 28 27 26 26 28 28 28 28 29 28 24 31 29 28 25 24 23 23 22 21 23 25 26 26 27 28 29 30 29 29 28 27
43 42 41 38 35 36 33 30 28 27 29 29 29 29 29 29 29 30 31 32 35 34 35 34 32 31 29 26 24 21 22 24 24 26 28 28 28 28 30 32 31 31 30
46 43 42 38 39 37 30 27 29 28 27 28 30 31 32 33 35 34 34 36 37 34 35 29 35 34 32 32 32 29 27 26 25 26 28 30 31 31 31 31 32 33 33
19 26 28 39 37 38 31 28 27 29 29 29 30 33 34 33 36 37 38 38 40 42 45 41 40 40 36 33 30 32 30 32 33 32 32 32 33 33 35 35 34 33 34
30 26 25 31 15 25 26 27 27 29 30 30 32 34 33 33 35 37 37 38 41 44 49 48 45 43 40 38 35 33 34 40 36 35 33 35 37 38 38 39 39 38 37
26 20 22 22 26 9 17 27 28 29 30 33 35 35 33 34 37 33 34 35 36 37 43 45 47 49 47 40 38 35 37 41 43 44 43 40 41 42 40 43 43 43 42
24 20 17 21 25 21 20 25 25 24 26 26 27 29 27 29 33 34 34 34 34 36 39 40 43 41 45 42 38 34 33 37 40 36 37 41 43 46 47 45 46 46 46
22 19 20 21 19 21 21 21 22 24 26 26 25 27 27 26 31 32 32 34 37 37 35 38 43 43 41 40 38 37 38 32 38 39 37 35 36 38 43 46 48 49 47
20 21 24 24 24 21 21 23 25 27 28 28 29 30 31 31 32 31 32 33 35 37 38 37 39 43 43 41 41 39 40 38 41 43 44 41 35 33 35 33 40 44 53
20 21 23 25 25 25 26 26 27 27 30 28 28 30 31 31 31 31 32 34 34 38 42 41 43 41 43 45 44 44 43 47 49 42 35 46 44 43 39 37 36 38 42
18 21 23 25 26 25 31 31 28 30 28 30 32 33 32 31 33 33 32 32 33 32 35 36 42 45 47 47 45 47 46 50 51 49 49 55 53 56 47 42 36 38 41
16 19 20 21 21 28 33 35 36 33 32 32 31 32 32 33 32 33 34 34 36 37 37 37 40 41 40 38 39 41 43 45 49 55 48 57 50 59 52 50 47 43 41
12 16 15 15 17 23 28 28 23 25 25 25 24 24 26 25 27 29 31 35 34 36 37 38 39 40 39 38 37 38 43 44 50 49 48 50 52 52 57 60 58 52 50
9 9 8 8 10 16 21 21 17 19 23 25 25 23 24 27 31 31 30 33 36 37 38 39 40 41 41 43 42 38 40 46 49 54 48 43 52 49 51 50 48 53 50
Wind_Direction
202 193 189 181 174 160 159 149 144 132 121 126 135 136 140 146 144 142 144 143 128 140 141 144 155 145 141 143 151 135 121 123 127 121 131 117 107 103 100 96 86 84 77
207 202 194 184 175 167 164 159 148 145 131 129 144 144 146 151 157 151 148 163 161 162 165 152 194 152 184 143 166 162 153 129 140 143 145 138 124 114 105 87 65 64 59
205 210 200 190 180 177 175 168 170 174 159 151 157 158 159 157 169 178 168 165 178 183 184 191 187 221 194 187 210 169 192 184 227 167 179 174 158 161 156 142 69 28 38
203 209 205 197 189 188 187 187 203 201 192 190 173 172 174 175 179 192 212 206 201 205 219 212 213 216 227 225 239 228 237 240 237 236 243 240 226 218 226 259 285 305 343
201 206 206 202 198 197 198 205 215 214 210 206 199 188 184 187 201 214 220 231 236 239 234 256 258 235 242 246 242 254 245 259 252 251 250 257 254 256 261 262 270 283 303
203 204 205 204 204 205 206 213 219 214 212 218 222 222 218 220 222 228 233 235 241 243 247 259 264 262 264 261 258 247 242 259 257 251 259 260 266 265 269 272 275 277 282
208 208 206 204 207 211 215 218 220 218 216 220 228 236 245 252 256 250 246 246 248 250 253 261 266 263 268 268 272 266 243 251 253 250 257 267 264 267 267 268 271 274 277
214 213 212 210 212 216 219 222 221 220 218 222 227 237 253 270 270 263 256 255 257 256 257 264 265 266 267 268 268 270 270 247 248 256 260 271 271 269 269 269 268 269 272
216 216 215 216 218 222 227 229 228 226 226 225 230 226 233 241 327 327 284 263 264 262 265 267 269 269 270 270 270 269 267 267 264 256 253 265 273 274 274 271 270 271 271
221 221 218 218 221 224 228 231 231 232 231 230 231 237 244 257 272 306 308 318 312 283 276 273 273 274 273 273 276 274 273 271 268 265 262 257 260 269 271 277 275 274 272
224 226 227 226 223 225 228 231 232 233 234 237 239 244 249 254 260 263 279 286 295 297 302 298 286 279 278 279 280 282 282 275 272 269 268 267 267 268 270 272 275 275 276
224 227 228 229 232 231 230 232 234 238 239 243 246 249 252 255 264 266 271 283 285 288 290 288 288 290 289 286 286 289 285 279 277 274 270 269 268 268 269 273 275 276 276
235 228 229 227 234 233 230 231 238 239 241 245 249 253 259 261 264 272 275 278 280 288 292 288 286 285 285 286 289 290 287 282 278 276 276 273 271 269 268 268 269 271 273
246 240 236 234 232 238 229 227 234 241 243 247 251 255 262 266 268 270 273 274 278 279 283 286 287 291 292 289 287 290 282 279 277 276 275 275 275 272 270 269 268 269 269
245 253 251 239 238 234 233 232 234 239 246 249 251 255 259 264 267 270 272 273 276 272 277 284 290 292 291 295 290 286 282 282 282 278 274 273 274 275 274 272 271 269 269
252 260 263 252 241 233 235 234 238 245 247 254 255 257 260 263 267 270 272 273 274 276 274 282 284 289 290 288 290 290 282 286 283 278 277 273 273 273 273 274 273 272 270
262 265 257 251 256 231 236 239 244 248 253 258 260 260 261 265 262 265 271 274 274 275 276 283 284 287 285 290 287 282 274 277 281 283 281 276 277 271 271 271 272 273 271
234 251 249 248 263 252 253 247 244 243 251 256 259 264 264 265 268 271 275 277 276 279 279 283 284 283 285 289 291 279 274 275 281 284 281 274 265 267 268 268 268 268 269
228 225 225 235 254 273 259 247 242 243 253 258 261 262 268 267 268 272 274 277 279 287 289 284 285 289 279 283 288 287 281 277 278 288 291 275 272 269 274 271 269 266 267
235 231 231 231 245 252 257 252 253 258 258 258 258 261 267 270 272 275 280 276 279 278 285 291 287 287 285 286 286 284 290 288 293 294 293 286 283 277 271 271 270 268 264
243 243 245 245 248 252 256 260 262 262 265 268 271 272 272 271 273 270 274 275 279 281 281 285 289 283 283 283 281 288 282 285 287 288 293 294 292 284 280 282 275 276 264
242 245 249 250 250 252 252 255 258 260 263 268 271 271 273 273 276 278 279 275 274 276 275 281 280 277 281 281 285 287 286 285 285 285 290 290 294 292 288 283 278 269 267
257 259 256 253 253 253 253 256 255 253 258 264 264 264 267 269 276 278 280 278 275 276 276 282 282 276 276 279 285 278 275 281 280 284 283 286 290 287 287 288 288 283 275
264 267 267 267 267 259 258 257 260 265 270 270 267 267 272 274 273 276 278 279 280 282 280 276 277 279 281 285 282 283 284 285 285 279 275 278 284 284 286 284 285 284 284
282 273 272 271 263 262 267 270 270 273 275 281 277 273 268 271 266 268 273 275 277 279 283 284 285 287 285 285 283 285 279 283 278 276 277 277 278 277 290 288 289 284 285
264 271 279 276 271 266 275 284 281 276 280 281 284 277 272 268 268 269 274 278 279 280 281 281 280 280 278 283 284 273 279 279 278 282 274 272 278 277 280 285 282 282 288
Height
1597 1598 1600 1604 1606 1607 1609 1611 1612 1613 1613 1614 1614 1615 1616 1617 1617 1619 1619 1620 1620 1620 1621 1621 1620 1618 1618 1618 1618 1617 1617 1616 1616 1615 1615 1614 1615 1614 1613 1613 1612 1611 1609
1596 1597 1600 1603 1606 1608 1610 1612 1613 1614 1615 1615 1616 1616 1617 1618 1619 1620 1622 1622 1621 1621 1621 1622 1621 1621 1619 1618 1618 1617 1617 1617 1617 1616 1615 1615 1615 1615 1614 1613 1613 1612 1611
1595 1597 1599 1602 1605 1607 1610 1612 1614 1615 1615 1616 1617 1617 1618 1618 1620 1620 1622 1623 1623 1622 1622 1621 1622 1621 1621 1620 1619 1618 1617 1617 1617 1617 1616 1615 1615 1614 1614 1613 1612 1612 1611
1593 1595 1598 1600 1603 1606 1609 1611 1614 1615 1616 1617 1618 1618 1618 1619 1620 1621 1622 1622 1623 1623 1621 1621 1621 1621 1620 1620 1619 1618 1617 1617 1616 1616 1616 1616 1615 1614 1613 1613 1612 1611 1610
1591 1593 1595 1598 1601 1604 1607 1610 1612 1615 1616 1617 1618 1618 1618 1618 1619 1621 1621 1622 1622 1622 1622 1620 1620 1620 1619 1619 1618 1617 1617 1616 1615 1615 1614 1614 1614 1613 1613 1612 1611 1610 1609
1589 1591 1593 1596 1598 1601 1603 1607 1610 1613 1615 1617 1618 1618 1617 1617 1618 1619 1620 1620 1620 1620 1620 1620 1619 1619 1618 1618 1617 1616 1617 1616 1614 1613 1612 1612 1612 1612 1611 1610 1609 1608 1607
1587 1590 1591 1594 1596 1598 1600 1604 1608 1610 1612 1614 1617 1617 1617 1616 1616 1616 1617 1618 1618 1618 1618 1618 1617 1617 1616 1616 1615 1614 1615 1615 1614 1612 1611 1610 1609 1609 1609 1608 1607 1606 1605
1585 1587 1590 1592 1594 1597 1598 1600 1603 1607 1609 1611 1614 1616 1616 1615 1613 1613 1613 1614 1615 1615 1615 1615 1614 1614 1614 1613 1612 1612 1612 1612 1612 1612 1610 1608 1607 1606 1606 1605 1604 1603 1603
1581 1584 1587 1589 1592 1594 1595 1597 1599 1601 1604 1606 1609 1613 1612 1612 1611 1610 1609 1610 1611 1611 1611 1611 1610 1610 1609 1609 1609 1608 1608 1608 1608 1607 1608 1606 1605 1603 1602 1602 1601 1600 1599
1578 1581 1583 1585 1587 1589 1592 1594 1596 1598 1601 1601 1605 1606 1607 1609 1610 1610 1608 1608 1609 1608 1608 1607 1606 1606 1605 1605 1605 1604 1604 1604 1604 1603 1603 1602 1602 1600 1599 1598 1597 1596 1595
1572 1576 1579 1582 1583 1585 1587 1590 1591 1594 1597 1598 1599 1600 1601 1603 1605 1606 1605 1606 1606 1606 1605 1604 1603 1602 1601 1601 1600 1599 1599 1599 1599 1598 1597 1597 1596 1595 1594 1594 1592 1591 1590
1565 1569 1572 1575 1579 1581 1583 1585 1587 1589 1591 1593 1595 1595 1597 1599 1599 1601 1601 1601 1601 1601 1601 1600 1600 1599 1598 1596 1595 1595 1594 1594 1593 1592 1591 1591 1590 1590 1589 1588 1587 1586 1585
1558 1560 1564 1567 1572 1574 1578 1580 1583 1585 1586 1587 1589 1590 1592 1594 1597 1597 1597 1596 1596 1595 1593 1593 1593 1594 1593 1592 1591 1589 1588 1588 1587 1586 1585 1584 1583 1583 1582 1581 1580 1580 1579
1550 1555 1557 1562 1564 1567 1570 1574 1577 1579 1581 1582 1584 1585 1587 1588 1590 1591 1592 1592 1589 1588 1587 1586 1585 1586 1585 1585 1585 1584 1582 1581 1581 1579 1578 1577 1576 1575 1575 1574 1573 1573 1572
1545 1551 1551 1554 1557 1559 1561 1565 1569 1571 1574 1576 1577 1579 1580 1581 1583 1584 1585 1585 1584 1580 1578 1579 1577 1577 1578 1577 1577 1576 1576 1575 1574 1573 1572 1570 1569 1569 1567 1566 1565 1564 1564
1534 1528 1544 1545 1548 1549 1555 1555 1560 1564 1566 1569 1570 1572 1572 1574 1576 1576 1577 1577 1576 1574 1568 1570 1569 1568 1568 1568 1567 1566 1565 1565 1564 1564 1564 1563 1561 1560 1559 1558 1557 1556 1555
1535 1536 1536 1532 1536 1535 1548 1551 1555 1557 1559 1561 1563 1564 1564 1566 1566 1567 1568 1568 1567 1565 1559 1559 1561 1560 1557 1557 1557 1556 1555 1553 1551 1551 1552 1553 1552 1551 1549 1548 1547 1547 1546
1528 1528 1531 1534 1543 1537 1534 1544 1547 1549 1551 1553 1554 1554 1556 1557 1557 1558 1558 1558 1556 1556 1553 1549 1550 1548 1547 1549 1546 1545 1544 1543 1542 1541 1540 1540 1538 1537 1538 1537 1536 1535 1535
1527 1527 1526 1526 1534 1536 1537 1537 1539 1542 1543 1544 1546 1547 1547 1548 1549 1550 1549 1548 1547 1546 1543 1540 1537 1540 1538 1538 1537 1534 1534 1533 1531 1530 1527 1525 1526 1525 1524 1525 1524 1523 1523
1521 1522 1524 1526 1528 1530 1530 1533 1534 1534 1535 1536 1538 1538 1539 1539 1541 1542 1541 1540 1539 1537 1535 1532 1529 1528 1528 1527 1526 1524 1522 1521 1519 1516 1514 1513 1511 1510 1510 1509 1509 1509 1508
1515 1517 1518 1519 1521 1523 1524 1526 1527 1528 1529 1529 1530 1531 1531 1532 1533 1533 1533 1531 1529 1527 1526 1524 1521 1519 1518 1517 1515 1515 1511 1509 1506 1504 1501 1498 1497 1496 1495 1495 1493 1494 1494
1510 1511 1513 1515 1516 1517 1518 1519 1521 1521 1523 1522 1522 1523 1524 1524 1524 1524 1523 1523 1522 1519 1517 1516 1512 1509 1507 1506 1506 1504 1502 1499 1493 1494 1488 1484 1486 1481 1481 1480 1480 1482 1480
1505 1506 1508 1509 1511 1514 1512 1513 1514 1515 1513 1514 1515 1516 1516 1515 1515 1515 1513 1512 1511 1510 1509 1508 1503 1501 1498 1498 1498 1495 1491 1488 1482 1483 1482 1470 1473 1465 1471 1469 1468 1469 1468
1500 1501 1502 1502 1504 1502 1503 1504 1505 1506 1506 1507 1508 1508 1507 1507 1507 1506 1504 1502 1500 1498 1498 1498 1494 1491 1490 1490 1489 1486 1482 1477 1472 1469 1471 1458 1462 1452 1454 1453 1453 1454 1455
1497 1496 1496 1497 1497 1497 1496 1496 1499 1500 1499 1500 1500 1499 1499 1499 1494 1496 1494 1492 1489 1487 1487 1485 1483 1480 1478 1478 1477 1476 1470 1469 1458 1456 1458 1450 1446 1443 1441 1433 1434 1437 1438
1493 1493 1493 1493 1493 1493 1491 1491 1494 1494 1492 1494 1495 1494 1492 1490 1489 1488 1486 1483 1479 1477 1476 1475 1473 1470 1467 1465 1465 1463 1461 1454 1451 1443 1444 1441 1436 1435 1425 1421 1420 1422 1421